GFSNGP_700_spd_132.txt.gz
Wind_Speed
10 11 14 15 13 11 14 13 11 29 31 26 31 16 14 21 23 27 29 19 19 18 18 14 8 9 6 8 11 9 10 13 18 23 26 28 27 28 27 24 25 26 24 25
15 9 7 13 11 9 10 8 15 19 22 20 25 22 14 17 19 24 29 27 21 19 18 21 18 15 14 11 10 10 9 9 10 14 19 24 25 26 28 26 24 24 26 27
5 7 10 5 3 11 15 11 10 17 22 25 23 24 24 23 23 22 22 21 19 19 14 17 16 15 10 8 8 6 4 5 4 5 8 12 11 13 20 23 21 21 26 27
5 6 1 2 6 11 17 10 8 13 15 19 20 20 21 25 21 22 22 18 16 13 15 15 15 11 7 4 2 0 1 3 4 7 8 11 16 14 18 18 23 17 20 22
2 3 9 10 6 16 19 13 13 15 14 17 16 17 18 21 21 22 22 21 14 14 6 11 7 9 7 5 4 5 5 6 6 6 7 16 16 18 17 23 22 20 24 20
2 2 4 3 8 18 13 11 8 15 16 20 20 20 22 21 24 22 21 18 14 10 9 7 8 9 8 7 6 6 6 7 7 8 9 9 10 17 20 22 26 28 25 21
10 6 6 7 8 14 4 8 17 17 16 18 21 23 25 22 20 21 17 16 14 13 10 10 9 10 9 9 9 7 7 8 8 9 10 10 10 12 13 21 25 27 23 27
6 5 6 4 12 9 12 15 16 14 14 14 17 19 19 15 16 15 14 12 15 16 11 9 8 9 10 10 9 9 7 7 8 8 9 10 12 12 12 14 13 23 31 28
6 6 11 17 14 17 17 17 16 15 14 15 15 17 16 14 12 13 11 13 16 15 12 9 8 8 9 9 9 9 7 6 6 7 8 8 11 13 13 14 13 15 17 33
13 12 12 16 16 17 17 17 18 18 16 15 15 17 15 15 13 12 13 12 15 14 12 11 11 9 9 8 8 8 8 7 7 6 6 8 9 10 12 13 14 14 14 17
21 19 17 17 13 12 15 17 19 21 18 16 16 16 16 14 15 14 11 11 13 12 11 11 10 10 10 9 8 8 8 8 7 6 5 5 6 9 11 12 12 11 11 11
23 19 16 17 16 16 16 16 20 21 20 18 16 16 16 16 16 16 13 12 14 13 11 10 10 9 8 8 8 7 7 8 8 8 7 7 7 7 6 7 9 9 8 9
16 16 17 17 16 15 16 21 24 23 20 17 18 17 17 17 16 17 16 15 12 14 13 11 9 8 8 8 8 8 7 7 9 9 8 9 9 8 8 8 5 6 4 5
15 15 11 14 15 16 18 23 25 23 20 17 16 17 16 16 16 16 16 16 14 13 13 12 11 10 9 7 7 8 8 8 7 8 8 9 9 9 9 9 7 4 4 8
13 14 15 14 15 17 22 25 25 23 19 18 17 16 16 16 16 16 17 16 15 14 13 12 12 11 10 8 7 7 7 8 9 8 8 8 7 7 7 8 6 6 6 5
7 9 12 15 19 21 25 26 26 22 18 17 17 15 14 14 14 16 17 16 15 15 14 12 11 12 12 11 9 8 7 7 7 7 8 7 6 7 7 6 6 6 6 6
11 13 15 19 23 25 25 23 21 19 17 16 16 15 13 13 13 14 15 16 16 15 14 14 12 11 13 12 12 10 9 9 9 10 8 7 6 5 5 6 5 5 5 5
11 15 20 21 21 19 16 15 15 14 15 14 15 15 14 13 13 14 15 16 17 18 17 16 15 14 14 15 14 15 13 12 11 12 11 10 9 8 7 7 7 7 8 7
15 18 17 17 16 13 13 13 13 12 13 13 14 15 15 15 15 15 14 14 15 16 17 16 16 16 16 17 17 16 15 14 14 14 14 13 13 12 12 12 12 11 10 10
13 13 11 11 12 13 13 14 14 14 14 14 14 15 15 15 16 17 17 15 15 15 15 16 16 16 16 16 17 17 16 16 16 17 17 17 16 16 17 16 15 14 14 13
6 9 12 14 14 14 15 16 16 16 15 15 16 17 17 18 17 17 18 18 18 18 18 18 17 17 17 17 17 17 17 17 17 17 18 19 20 19 19 18 17 17 16 15
10 12 14 15 18 19 20 20 21 20 20 19 19 19 20 21 21 21 20 19 19 19 19 19 19 19 19 19 19 19 18 18 19 19 20 21 21 21 21 20 19 18 17 17
15 17 19 19 20 21 21 21 21 20 19 18 18 19 19 20 20 21 22 21 21 20 20 20 20 20 20 20 20 20 20 20 20 21 21 22 22 22 22 22 22 20 19 19
18 18 18 18 18 18 18 18 19 20 20 19 18 18 18 18 18 19 19 20 20 20 20 20 20 19 19 19 19 19 20 20 20 21 21 22 22 23 23 23 23 22 21 21
16 15 14 14 14 15 15 16 17 18 19 20 20 21 20 19 19 18 18 18 19 19 19 19 18 18 18 18 17 17 17 18 18 19 19 20 21 22 22 22 22 22 21 21
12 12 12 12 12 13 13 14 16 17 18 19 19 20 20 20 20 19 19 18 18 17 17 17 18 18 17 17 17 17 17 17 17 17 17 17 17 18 18 18 19 19 20 20
11 11 11 11 12 13 14 14 15 16 17 18 18 19 19 20 20 20 21 21 20 19 18 18 17 16 16 17 17 16 16 16 16 16 16 16 16 16 17 17 17 17 18 18

GFSNGP_700_spd_135.txt.gz
Wind_Speed
8 7 9 9 10 8 9 11 10 18 23 26 30 30 28 34 36 37 37 35 32 25 25 24 24 18 15 14 16 16 21 21 14 10 9 7 13 19 24 29 29 35 30 32
8 7 9 11 11 10 9 11 16 17 19 23 28 28 25 28 33 33 33 34 33 26 19 30 29 22 18 17 15 12 12 12 12 15 23 23 27 25 21 19 20 26 29 30
3 3 6 10 10 8 9 13 17 15 17 22 25 25 28 30 30 31 30 30 31 26 19 16 26 23 16 13 12 11 11 11 10 12 22 30 31 29 27 27 28 29 27 27
4 2 3 3 8 8 12 16 15 14 17 21 23 24 25 28 29 27 27 26 26 24 21 19 15 19 18 12 8 5 5 4 5 8 10 9 14 16 15 26 32 27 27 27
3 3 5 9 10 7 11 16 16 14 13 24 24 21 22 26 24 26 28 24 24 21 20 15 15 14 17 13 10 5 2 1 1 2 4 14 11 14 18 16 20 21 17 24
5 3 4 3 8 11 16 13 10 12 22 23 24 24 22 24 21 22 24 20 21 17 15 15 17 14 12 13 13 11 6 3 3 5 5 5 10 19 21 17 25 22 24 23
9 5 4 6 9 11 4 7 17 18 18 19 21 21 23 24 19 20 20 19 20 19 17 14 17 13 12 10 10 10 7 5 4 6 7 8 8 9 9 15 21 22 25 28
10 7 5 9 7 6 12 16 16 17 16 17 20 18 18 20 20 17 18 17 19 19 17 14 14 14 13 10 9 9 8 6 5 4 6 8 10 11 10 12 12 13 17 26
9 6 8 8 10 11 15 15 16 17 17 17 19 20 17 16 18 18 17 18 18 18 18 15 14 12 12 12 11 9 8 6 5 4 5 7 9 11 13 13 14 12 14 13
12 13 13 11 13 14 13 13 15 17 18 19 18 20 19 16 16 17 17 15 16 16 16 16 14 11 10 10 10 10 8 7 6 5 4 6 8 10 12 13 15 15 14 14
17 17 16 17 15 12 13 14 14 17 20 22 21 19 20 17 16 16 17 16 12 13 16 14 14 12 10 10 10 9 9 8 7 6 5 5 4 6 9 12 13 13 12 11
17 16 17 17 15 14 13 13 15 19 23 24 23 18 20 18 17 16 15 15 15 11 13 15 14 14 12 9 9 9 9 9 8 7 6 6 6 5 4 7 9 10 9 9
11 12 13 13 13 13 14 13 15 20 23 25 22 19 17 18 18 17 15 14 14 14 11 12 13 13 12 10 9 9 9 9 9 8 8 8 9 9 8 7 4 3 3 3
13 13 12 11 11 14 14 15 17 21 24 25 22 19 17 17 18 17 15 14 13 13 12 11 11 12 11 11 10 9 8 8 8 9 9 8 9 10 10 10 10 8 6 6
13 12 13 12 12 13 14 18 22 24 23 23 21 19 17 16 16 16 16 15 13 13 12 12 11 10 11 10 11 10 9 9 8 7 8 8 8 8 8 8 8 8 7 6
7 7 7 9 12 15 18 21 22 21 20 19 18 17 15 14 14 14 15 14 14 14 13 13 12 11 9 9 9 10 9 9 9 10 8 8 8 8 7 7 6 6 6 7
9 10 11 13 15 18 18 17 17 16 15 14 14 15 14 14 13 13 14 14 14 14 13 13 13 14 13 11 10 11 10 10 9 9 9 8 8 8 8 6 7 6 5 5
7 9 11 14 15 15 15 13 12 13 13 13 13 13 13 14 14 15 15 15 15 14 13 13 13 14 14 15 14 13 14 13 12 11 11 10 10 10 10 10 9 9 9 8
9 11 12 13 12 12 12 13 13 14 14 14 14 14 14 14 14 15 16 17 16 15 14 13 13 13 14 15 15 15 15 17 16 15 14 14 13 13 13 13 13 12 11 11
8 8 8 8 10 12 13 13 14 15 16 16 16 16 16 16 16 16 16 16 17 17 17 17 16 15 14 14 14 15 15 16 17 16 15 16 16 16 15 15 14 14 13 12
4 7 9 11 12 13 15 16 17 17 17 17 18 18 18 18 17 17 18 18 19 18 18 18 18 18 17 17 16 16 16 15 16 17 17 17 17 17 17 16 16 15 14 14
8 10 12 15 16 17 18 18 18 18 17 17 18 18 19 19 19 18 17 17 17 18 19 19 19 18 18 18 18 18 17 17 18 18 18 19 19 19 18 18 17 17 17 17
12 15 17 17 16 16 15 15 15 15 15 15 16 16 17 18 19 20 20 19 18 17 17 17 18 18 18 17 17 18 18 18 18 19 19 19 20 20 20 20 19 19 18 18
15 15 14 14 14 14 14 14 14 14 15 16 16 17 18 18 18 19 19 19 19 19 18 17 16 16 16 16 16 16 17 17 17 18 18 18 19 19 20 20 19 19 19 19
12 12 12 13 13 13 14 15 15 16 16 17 18 18 19 20 20 20 19 19 18 18 18 18 17 16 15 15 15 15 15 15 15 16 17 17 17 17 18 18 18 18 19 18
10 11 12 12 13 13 14 15 15 16 17 17 17 18 18 19 19 20 20 19 18 18 17 16 16 16 16 16 15 15 15 14 14 14 14 14 14 15 15 15 16 16 16 16
10 11 11 11 12 13 13 14 15 16 17 17 18 18 18 19 19 19 19 19 19 18 17 16 15 15 15 15 15 15 15 15 14 14 14 13 13 13 13 13 13 13 13 13

GFSNGP_700_spd_138.txt.gz
Wind_Speed
11 8 12 12 13 15 18 16 12 17 21 23 27 31 33 33 34 34 36 35 36 35 28 26 28 25 17 13 13 14 15 22 23 27 35 38 40 39 30 33 36 37 38 42
10 12 13 17 17 17 17 17 19 19 19 23 22 27 31 33 35 35 35 32 33 33 32 23 26 34 20 15 11 3 13 25 31 23 39 31 35 46 37 33 30 34 40 41
5 8 8 12 24 23 17 14 15 19 19 21 21 25 30 33 33 32 32 32 31 29 30 28 23 28 28 27 13 12 7 10 14 34 11 16 15 26 41 38 24 25 26 40
7 8 7 6 7 14 13 13 13 17 18 20 21 25 25 27 31 26 28 29 28 27 26 22 25 22 21 21 17 15 11 0 10 12 13 14 17 23 21 21 26 25 22 21
7 16 2 8 14 11 7 7 14 11 14 19 24 21 17 24 27 25 25 26 27 26 24 21 18 18 17 16 16 9 4 1 4 8 13 9 12 13 21 27 29 29 25 29
9 5 5 4 8 9 6 6 5 13 17 20 22 21 20 22 23 24 23 22 23 23 22 19 15 17 16 13 12 12 7 4 4 7 7 9 14 12 12 18 12 19 31 31
12 9 7 11 9 8 4 3 11 15 17 19 22 23 23 22 21 22 21 20 20 22 22 19 15 16 16 15 14 11 8 4 4 7 8 9 9 12 16 17 23 18 17 21
14 13 10 12 9 6 8 12 13 15 17 18 19 21 22 21 20 21 21 20 19 20 20 19 16 13 14 14 14 13 11 7 5 5 7 9 11 11 10 11 12 18 22 24
12 10 10 10 8 8 10 12 12 13 16 17 19 21 21 22 20 20 20 20 19 17 18 19 17 14 13 12 12 12 12 11 8 6 6 7 9 10 11 12 13 14 14 17
12 12 12 14 14 13 13 11 11 12 14 16 19 21 22 21 20 19 19 18 19 17 16 16 17 15 13 12 11 11 12 12 12 10 7 6 7 8 9 11 13 14 15 16
14 13 14 16 18 16 14 13 11 12 14 17 20 22 23 21 20 18 18 18 16 18 16 15 15 14 13 12 11 10 10 10 10 10 10 8 6 6 8 11 12 13 13 13
11 15 15 15 15 14 13 13 13 13 16 19 21 23 23 21 20 19 18 17 16 16 17 14 12 13 12 11 11 10 8 9 10 9 9 9 9 7 5 5 9 12 13 11
12 12 11 12 11 12 11 12 14 16 18 22 24 24 24 21 19 18 18 16 15 15 14 15 13 10 11 10 9 10 9 8 7 7 8 9 9 9 9 8 6 2 4 4
10 11 11 10 10 10 13 14 15 18 21 24 25 23 24 21 19 17 16 15 15 15 15 14 13 13 10 10 8 7 8 8 8 7 7 7 7 8 8 9 9 8 9 2
10 10 10 10 13 14 13 15 18 21 23 23 22 21 20 19 18 17 15 13 13 14 14 15 14 12 13 11 9 8 7 6 6 6 6 6 5 5 6 6 7 7 6 6
6 7 8 9 9 12 14 18 19 18 18 17 17 16 15 15 16 16 15 13 13 13 14 14 14 14 13 12 12 9 9 8 7 6 6 6 5 4 4 4 4 4 5 5
10 10 9 11 12 13 15 15 15 14 13 14 14 15 14 13 12 13 14 13 12 12 13 13 14 13 13 13 13 13 11 10 10 9 8 7 6 6 6 6 5 5 4 5
8 8 8 10 12 12 12 11 12 13 14 14 14 14 14 13 12 12 13 14 14 13 13 13 13 13 13 12 12 13 14 14 13 12 11 11 10 10 9 9 8 8 8 7
7 7 9 10 9 8 9 10 11 12 13 14 14 14 14 14 15 14 14 14 15 15 15 14 14 14 14 13 13 12 13 13 13 14 15 14 13 13 13 12 12 11 11 10
4 3 3 5 7 9 11 12 14 15 16 17 17 17 17 17 17 17 17 16 15 15 15 15 16 16 16 15 15 14 14 14 14 14 14 14 14 14 14 14 14 14 14 13
1 4 5 7 10 13 15 16 16 15 14 14 14 15 15 15 16 16 17 17 18 19 18 18 17 16 16 16 16 16 16 15 15 15 16 16 15 15 16 16 15 15 15 14
5 7 9 12 13 13 13 13 13 13 13 13 13 13 13 13 14 15 16 16 17 17 17 18 18 18 17 16 16 16 17 17 17 17 17 17 17 17 17 17 17 16 16 16
7 9 10 10 10 10 10 11 11 11 12 12 13 14 15 16 16 17 18 18 18 18 18 18 18 17 17 17 17 16 16 16 16 16 17 16 17 17 17 17 18 18 18 17
8 8 8 8 8 9 10 11 11 12 12 13 14 14 15 16 16 16 17 17 18 18 18 17 17 16 16 16 16 16 16 16 16 16 16 16 16 16 16 17 17 18 18 18
6 6 7 8 9 10 10 11 12 12 13 13 14 15 15 16 17 17 18 18 18 18 17 17 17 16 15 15 15 15 15 15 15 15 15 15 15 15 15 15 15 16 16 17
6 7 8 9 10 10 11 12 12 13 13 14 15 16 16 17 18 18 18 17 17 17 17 16 15 15 15 15 14 14 14 14 14 14 14 14 14 14 14 14 14 14 14 15
7 8 8 9 10 11 12 12 13 13 14 14 15 16 16 17 17 17 17 17 17 17 17 16 16 15 14 14 14 14 14 13 13 13 13 13 13 13 13 13 13 13 14 14

GFSNGP_700_spd_144.txt.gz
Wind_Speed
21 13 9 10 20 28 29 30 13 12 13 16 22 28 29 30 31 30 29 30 32 36 37 35 34 29 31 28 28 19 17 17 16 12 11 11 16 19 14 14 26 19 41 69
21 15 13 13 17 21 26 25 24 21 18 22 20 23 28 28 28 26 28 29 30 33 34 34 34 31 29 29 30 24 12 20 19 17 14 13 15 15 16 7 12 21 11 23
12 13 15 25 25 24 25 28 23 24 21 26 24 26 27 24 25 27 29 29 29 31 33 34 33 33 29 28 25 25 25 19 17 20 21 22 22 20 15 14 14 20 19 18
13 13 15 22 13 19 26 26 25 18 17 20 19 20 23 23 24 26 28 28 26 27 30 30 31 32 29 27 25 19 19 22 19 18 14 14 23 28 27 20 17 22 25 26
18 19 11 8 14 11 14 20 17 13 21 19 15 15 18 20 24 26 26 27 27 26 29 27 29 30 30 27 24 22 17 18 20 16 14 13 11 9 13 13 13 19 23 32
12 16 8 14 16 15 14 12 13 22 19 15 13 10 14 20 21 24 25 25 26 26 25 28 25 27 29 27 25 22 20 15 16 17 12 14 13 12 7 6 14 9 15 18
24 16 11 11 14 5 7 8 20 16 13 13 15 17 19 21 24 25 27 26 25 26 24 25 26 24 25 26 24 23 22 18 15 19 15 15 16 13 10 9 15 8 13 20
22 16 16 14 13 7 10 13 13 13 12 15 18 19 20 21 23 25 26 25 25 24 24 22 23 23 22 23 23 22 21 20 16 14 14 13 14 11 10 10 9 11 11 8
19 20 8 14 13 14 10 11 13 13 17 18 19 18 18 19 21 23 25 26 25 24 23 22 21 22 20 21 20 20 19 18 17 14 12 12 12 12 10 9 10 10 9 9
16 10 14 13 12 10 9 12 13 16 21 20 18 16 18 20 23 25 26 26 25 23 23 21 20 19 19 18 19 17 17 17 15 14 12 11 10 10 10 10 8 9 9 10
12 15 14 10 11 11 12 14 14 16 18 19 16 17 20 22 25 27 27 26 25 23 22 21 19 17 17 17 17 16 15 15 14 13 12 11 10 10 10 8 9 9 9 9
15 16 13 12 13 13 12 12 10 11 14 15 16 19 22 26 27 28 26 25 23 22 21 20 19 17 15 16 16 15 13 12 13 11 11 11 10 11 11 11 8 6 6 7
20 19 17 15 14 15 12 7 7 10 13 17 17 21 25 27 25 23 23 22 20 19 19 19 19 18 15 14 15 14 13 12 11 10 9 9 9 9 9 10 11 11 7 5
17 16 17 17 13 10 8 7 9 13 14 17 20 21 21 21 19 18 18 19 18 17 17 18 17 17 16 14 13 12 12 12 12 10 9 8 8 7 7 7 7 8 7 7
16 12 12 10 8 8 9 10 11 14 17 19 19 17 17 17 17 17 16 16 16 16 16 15 15 15 15 15 14 13 11 12 12 11 10 8 8 7 6 6 6 6 5 6
8 9 8 7 6 6 6 8 12 15 16 15 15 16 16 16 16 16 16 16 16 15 15 16 16 15 14 15 14 13 12 11 11 12 12 11 10 9 8 7 6 6 6 6
6 5 5 4 2 5 7 10 13 14 13 14 15 16 17 18 18 18 18 18 17 17 16 16 16 16 16 15 14 14 13 13 11 11 12 13 12 12 11 10 9 8 8 7
7 6 3 3 4 6 9 10 9 10 12 14 16 18 18 19 19 18 18 18 18 18 18 17 17 17 16 16 16 16 16 15 14 13 12 12 13 13 14 13 12 12 11 10
5 3 3 4 5 5 6 8 10 13 15 16 16 16 16 16 16 16 16 16 17 17 17 18 18 18 18 18 18 17 17 18 17 16 15 14 14 14 15 15 14 14 13 13
5 4 3 3 4 5 8 11 12 12 12 13 13 13 14 14 15 16 16 16 17 18 18 19 19 19 19 20 20 20 19 19 19 19 18 18 17 16 15 16 16 16 16 15
7 5 4 4 5 7 8 9 10 10 11 12 13 14 14 15 15 16 17 17 17 18 18 18 19 20 21 22 22 22 23 22 21 20 20 20 19 19 18 18 17 17 17 17
6 5 4 5 5 6 6 7 8 9 11 12 13 13 14 14 14 14 16 16 17 18 20 20 21 21 22 22 22 23 23 23 23 23 21 20 20 20 20 20 19 19 20 19
5 5 4 3 4 5 5 7 8 10 11 12 13 13 14 14 15 16 16 17 18 19 21 21 22 23 23 23 22 22 22 23 23 22 22 21 20 20 19 19 19 19 20 20
4 4 3 3 4 4 6 7 9 10 11 12 12 13 14 15 16 17 18 19 20 21 21 22 22 22 22 22 23 23 22 22 22 21 21 21 21 20 18 18 19 18 18 19
5 5 4 3 4 4 6 7 9 10 11 12 13 14 15 16 17 18 19 20 20 21 22 22 23 23 23 22 22 22 22 22 21 21 20 19 19 19 19 18 17 17 17 17
7 6 4 5 4 4 6 7 8 9 10 11 13 14 15 16 17 18 19 19 20 21 22 22 22 23 23 23 23 22 21 20 21 20 20 19 19 18 18 18 17 17 17 16
8 6 6 5 4 4 5 7 7 9 10 11 12 14 15 16 17 18 19 20 21 21 22 23 23 23 23 23 23 22 22 21 20 20 19 19 18 18 17 17 17 17 16 16

GFSNGP_700_spd_150.txt.gz
Wind_Speed
32 25 19 13 15 22 29 39 30 32 28 35 29 22 20 22 24 26 27 30 30 31 29 26 27 30 32 34 35 36 36 37 34 31 31 29 33 23 16 18 19 15 21 12
39 31 25 29 42 32 24 28 34 28 28 31 27 26 25 24 26 27 28 28 28 30 28 27 28 31 33 34 35 35 35 37 36 32 31 27 28 25 20 17 13 12 7 12
27 34 25 21 54 49 32 25 25 30 33 31 36 35 31 25 27 27 26 26 27 28 29 29 30 32 34 35 36 35 35 36 36 34 29 26 27 24 21 17 15 10 6 10
14 12 7 34 30 29 38 26 22 23 25 31 31 32 27 25 26 26 24 24 26 29 30 30 30 32 34 36 36 34 33 34 35 33 31 28 25 24 20 18 12 14 11 7
12 17 17 13 13 15 19 26 29 31 28 25 25 27 28 29 29 25 24 24 26 29 29 30 31 32 34 35 35 34 33 31 33 32 31 29 26 23 20 18 14 9 12 11
13 6 8 13 21 9 17 25 24 25 26 26 29 24 24 23 22 22 23 22 24 27 28 29 31 33 33 34 35 34 32 30 31 31 30 28 27 23 20 15 14 11 9 8
21 10 11 18 8 11 21 13 16 15 17 18 20 20 20 20 21 22 22 22 23 26 28 30 31 33 33 33 33 33 32 29 30 28 28 27 26 23 22 18 12 11 9 6
21 11 16 8 10 19 23 19 9 17 15 16 19 19 18 19 20 19 20 21 23 26 29 31 32 31 33 31 31 30 29 28 27 27 25 24 23 22 22 20 14 10 9 9
19 15 11 13 17 19 19 12 11 13 14 15 15 17 18 17 16 17 19 23 26 28 29 30 30 29 29 29 28 26 26 26 25 25 23 22 20 20 20 21 15 11 8 9
20 15 16 19 16 17 14 12 10 11 11 11 14 13 12 12 14 17 21 23 25 26 26 26 26 26 26 27 26 25 24 24 23 21 21 21 20 19 18 19 17 13 9 8
23 17 19 22 23 22 13 7 6 6 8 9 7 6 8 12 16 19 21 22 22 23 23 23 23 24 24 25 25 23 22 22 21 19 18 19 19 18 17 17 17 11 13 7
32 28 23 23 19 11 3 4 4 5 4 2 4 7 11 14 16 18 18 19 19 20 21 21 21 22 23 24 25 23 21 20 19 17 16 16 17 17 16 17 16 16 14 11
19 29 19 9 7 6 6 5 3 3 2 4 7 10 13 13 14 16 16 18 19 19 20 20 21 21 22 22 22 22 21 20 19 18 16 15 14 15 15 15 15 16 15 13
13 27 16 12 6 9 8 5 3 2 3 7 10 10 10 10 11 14 16 18 19 19 19 20 20 21 21 21 21 20 20 21 19 18 18 17 15 14 14 13 12 12 12 13
15 17 9 9 12 11 9 4 2 3 6 7 7 8 10 12 14 17 18 19 20 20 20 20 20 20 20 20 20 20 19 18 19 19 18 18 18 17 16 14 14 14 13 12
21 19 15 13 12 10 6 2 3 5 6 6 8 11 14 16 16 16 16 17 17 17 18 18 17 17 18 18 19 20 20 19 18 18 18 18 17 17 17 16 15 13 13 12
23 23 18 15 11 9 5 4 4 3 4 7 10 12 12 13 14 14 15 16 17 16 17 17 18 18 18 18 18 19 20 20 20 19 18 18 18 17 17 17 16 16 14 13
18 15 13 10 10 8 7 4 2 4 7 9 9 10 10 12 13 14 15 16 16 16 17 17 18 18 19 19 20 21 21 21 21 22 21 20 19 19 18 18 17 16 16 15
17 15 15 13 11 8 6 4 4 5 6 7 8 10 11 12 14 14 15 15 16 16 17 17 18 19 20 22 22 22 22 22 23 24 23 23 22 21 20 20 19 18 16 15
18 17 14 11 9 7 5 3 2 3 5 6 7 9 10 11 12 12 13 14 14 16 17 18 19 19 20 21 23 24 25 25 25 25 25 25 25 24 23 21 21 21 20 18
15 13 12 10 8 6 3 1 2 3 4 5 6 7 8 8 9 10 11 13 14 15 16 18 19 20 21 22 23 24 24 25 26 26 26 26 27 26 24 24 22 20 21 20
14 13 12 9 8 5 3 1 2 3 3 4 5 6 8 9 10 11 12 13 14 15 17 18 19 20 21 22 24 24 25 25 26 26 26 26 26 25 25 24 22 21 20 19
15 12 10 9 7 5 3 3 3 2 2 3 4 5 6 7 9 9 10 12 13 15 16 17 19 20 22 24 25 25 26 26 27 26 26 26 26 25 23 23 22 21 20 19
14 11 10 9 7 5 4 4 3 2 2 2 2 4 5 6 7 8 10 12 13 15 16 17 19 20 22 24 25 26 26 27 27 26 26 25 24 24 23 22 21 20 20 19
12 11 11 9 7 6 5 5 4 3 3 2 3 4 5 6 8 9 11 12 14 15 17 18 20 21 23 25 27 27 27 27 27 26 26 25 24 23 23 22 21 20 19 18
9 10 11 10 8 7 6 6 6 4 5 4 4 5 6 8 9 10 12 13 14 15 17 19 20 22 24 26 27 27 27 27 27 26 25 25 24 24 22 21 21 21 19 18
8 9 10 9 8 8 8 9 8 7 8 6 8 8 8 9 11 11 12 13 14 15 17 19 20 22 24 25 26 27 27 26 26 26 25 24 24 23 22 21 20 19 20 19

GFSNGP_700_spd_156.txt.gz
Wind_Speed
34 26 17 26 26 32 40 39 29 40 34 43 38 38 35 32 31 31 32 28 30 29 28 31 35 35 36 37 38 39 38 37 36 36 37 36 36 38 40 42 43 42 41 39
33 37 37 27 24 27 29 31 33 39 45 38 32 34 37 33 39 35 29 30 30 26 31 32 32 33 34 36 36 35 35 35 35 35 36 36 36 38 39 40 42 43 41 38
24 26 27 22 45 41 37 37 36 36 35 38 36 29 25 29 32 32 29 30 28 31 30 30 30 33 34 33 31 32 32 33 34 35 36 35 36 38 38 39 41 42 41 38
18 19 9 22 28 24 25 29 33 32 39 43 31 27 27 26 28 30 30 25 28 27 27 29 31 31 30 29 31 31 30 32 33 34 35 34 35 36 37 37 39 41 40 38
12 13 20 23 20 18 16 26 21 22 26 34 35 28 26 25 30 26 23 21 24 24 25 29 29 27 28 29 31 30 30 32 34 34 34 34 34 35 36 36 37 39 40 37
18 7 6 8 4 9 13 26 15 14 17 15 18 23 23 21 25 21 21 22 21 23 25 23 24 26 27 29 29 29 30 32 34 34 34 33 34 34 34 36 36 38 38 38
25 16 19 24 16 10 11 17 15 15 14 13 19 23 17 13 15 16 19 18 20 21 21 22 25 26 27 27 27 28 29 30 32 33 33 33 32 32 32 33 34 34 35 36
24 15 14 18 13 19 12 16 16 13 11 9 9 12 14 11 14 14 16 19 18 19 21 21 22 23 24 25 26 27 28 29 31 32 32 31 31 30 28 29 30 30 31 29
17 11 13 13 14 13 11 12 13 12 12 11 13 12 10 9 11 14 15 15 17 18 18 19 20 21 23 24 25 25 26 27 29 29 31 30 29 28 26 26 27 28 28 27
23 22 22 19 15 11 12 18 16 13 13 10 6 8 8 9 8 8 11 15 16 16 18 20 21 22 23 23 24 25 26 26 27 28 28 30 28 26 27 26 25 25 27 27
26 26 22 18 17 17 17 15 14 17 10 8 7 6 5 4 6 10 12 13 14 16 18 20 22 23 24 24 24 24 25 26 26 26 26 27 29 29 27 28 29 28 29 31
23 22 21 17 13 15 17 13 12 8 8 7 7 4 3 5 7 8 10 12 14 18 19 20 20 20 20 21 23 24 24 24 25 25 25 25 25 24 27 27 27 27 27 28
27 24 20 13 15 17 11 8 10 9 8 7 4 2 3 4 6 8 11 14 14 14 15 16 18 20 21 22 23 23 23 24 25 25 25 25 25 25 23 24 27 26 26 25
25 27 14 12 18 20 13 9 9 10 8 5 3 1 3 5 8 11 10 10 12 14 16 18 19 20 20 21 23 24 25 25 25 26 26 27 27 27 27 27 25 25 25 26
27 15 10 12 18 16 12 10 11 9 6 3 1 3 5 8 7 7 8 11 13 15 16 17 18 19 21 22 23 23 24 25 26 27 27 27 28 28 27 27 27 25 23 23
21 14 19 20 17 13 11 12 11 7 4 3 3 5 5 4 5 7 10 11 12 14 15 15 18 20 21 22 23 24 25 26 26 27 27 27 27 28 28 28 28 28 27 25
17 20 23 20 18 15 13 12 9 6 4 3 4 3 2 4 6 8 9 10 11 12 14 16 19 20 21 22 24 26 27 28 28 28 27 28 29 28 29 29 30 30 29 29
15 13 13 10 14 13 11 9 7 5 5 4 3 1 3 5 6 7 8 9 11 11 15 18 19 20 22 24 25 27 28 29 30 31 32 32 33 33 33 31 30 28 28 27
14 16 15 16 15 13 11 8 7 7 5 4 2 1 3 4 5 6 7 8 9 12 14 16 18 19 20 22 24 26 27 29 30 31 33 34 33 32 32 31 31 30 29 28
20 20 16 15 14 13 10 9 8 6 5 3 1 1 3 3 3 5 7 7 9 12 14 15 16 18 19 21 23 25 27 29 30 32 34 35 34 33 32 31 31 30 29 28
18 17 16 15 13 11 11 9 8 6 4 2 1 1 1 2 4 4 5 7 10 11 12 14 16 18 19 21 24 26 28 31 32 33 34 35 35 34 33 32 31 30 29 28
19 17 16 15 14 12 11 9 7 6 4 4 2 1 0 1 2 2 5 7 8 9 10 12 15 17 20 22 24 26 28 30 32 33 34 34 34 34 33 32 31 30 30 28
19 18 16 15 14 13 11 9 7 6 5 5 4 3 1 3 3 4 5 7 8 10 11 13 15 17 19 21 24 26 28 29 31 32 33 34 34 34 34 32 31 31 29 28
19 17 16 15 13 12 11 9 8 7 6 7 6 5 3 4 5 6 7 9 11 12 14 14 15 17 20 21 23 25 27 29 30 31 32 32 32 33 32 32 30 30 29 29
17 16 15 13 13 12 10 9 9 9 9 9 8 7 6 6 7 8 9 10 12 14 15 16 17 19 21 22 24 26 28 29 30 30 31 31 31 30 30 31 31 30 29 28
16 15 15 13 13 12 12 11 12 12 11 12 11 10 9 8 10 11 12 13 14 15 16 17 19 21 22 23 25 27 29 30 30 30 30 30 30 30 30 30 29 29 29 29
16 14 11 10 11 12 12 12 13 14 15 15 15 13 12 12 12 14 15 16 17 18 18 19 20 21 23 24 26 27 29 30 30 30 30 30 31 31 31 31 31 30 30 30

GFSNGP_700_spd_162.txt.gz
Wind_Speed
28 27 22 25 30 29 25 25 22 30 29 37 28 27 29 24 27 27 30 27 24 26 27 30 33 35 34 24 26 31 34 34 31 30 32 33 34 35 37 38 38 38 38 37
25 23 23 29 33 32 30 32 32 34 38 33 30 29 27 25 28 28 27 29 26 27 29 31 33 31 20 22 27 31 31 30 31 32 31 32 33 34 36 37 38 37 38 38
22 13 14 16 33 30 30 32 30 33 36 27 23 25 28 30 30 28 26 24 24 26 31 33 25 17 20 24 28 29 28 29 30 30 30 31 32 33 34 34 35 36 37 37
25 18 16 26 21 18 21 25 23 25 25 22 22 29 32 32 26 25 25 24 20 22 28 18 17 19 22 26 25 25 26 27 27 28 28 29 30 31 32 33 34 35 34 35
24 23 25 26 23 19 18 27 19 20 18 17 26 22 25 25 24 25 22 19 16 20 19 15 17 20 22 22 22 23 24 24 25 26 27 28 29 30 31 31 32 32 33 34
25 21 19 31 12 9 15 29 15 17 17 14 13 16 19 18 17 18 21 14 17 20 14 15 17 18 18 19 20 21 23 24 26 28 30 30 30 30 30 30 30 31 31 33
33 31 33 32 24 19 17 23 11 12 12 11 11 16 16 13 12 15 13 12 15 13 13 14 15 16 17 19 20 23 25 26 28 29 29 30 30 31 30 30 30 30 29 31
24 31 26 25 20 27 21 22 14 13 15 14 12 13 13 12 13 12 11 12 10 11 10 11 13 14 16 19 21 21 22 24 25 26 27 27 28 28 28 28 28 28 27 26
15 12 16 16 17 20 29 26 18 13 12 13 13 12 11 11 13 12 10 8 8 8 8 9 11 15 15 15 17 19 21 23 24 26 27 28 29 30 30 29 28 28 28 28
20 21 24 29 28 24 24 28 10 15 15 14 11 13 14 11 11 9 8 7 7 6 8 10 10 11 13 15 17 19 21 22 23 24 26 27 28 29 30 30 30 29 30 30
25 22 26 26 25 26 32 24 13 15 15 12 12 15 13 12 10 9 7 6 5 6 7 6 8 11 13 15 16 18 19 20 21 23 25 27 29 30 31 32 33 34 33 34
21 19 23 18 13 12 14 16 16 10 10 14 16 12 11 10 9 7 6 5 5 3 4 6 8 10 12 13 14 16 17 18 20 22 24 25 27 29 30 30 31 32 32 31
20 24 22 17 12 11 13 12 12 11 11 13 13 12 11 9 8 7 6 4 2 3 4 6 7 9 10 11 13 15 18 22 24 26 27 28 29 28 26 27 28 29 29 30
22 14 18 16 14 14 13 14 13 17 17 15 13 11 9 9 7 6 5 4 3 3 3 4 5 7 8 11 14 17 20 23 24 26 28 29 30 31 31 31 30 28 29 30
17 13 9 10 8 14 15 14 16 16 14 14 12 11 9 8 7 6 5 4 2 0 2 3 4 6 9 11 15 17 20 22 24 27 28 29 30 31 32 33 32 32 30 29
10 11 12 12 13 14 19 20 17 16 17 14 12 10 8 8 7 6 5 3 2 1 1 3 4 6 8 11 14 16 20 22 24 26 29 30 31 32 33 34 35 35 35 35
12 14 18 16 17 17 21 20 18 18 15 13 11 10 9 8 8 7 5 4 4 3 2 2 4 5 7 11 14 17 20 22 24 27 29 31 33 34 35 35 36 36 36 36
16 13 8 15 18 23 21 19 21 19 15 13 11 10 10 9 8 7 7 6 4 2 0 1 3 5 8 11 13 16 18 21 25 27 30 32 33 34 35 36 36 36 36 35
15 15 15 18 25 22 17 19 19 16 14 13 12 11 11 10 9 9 8 7 4 2 1 2 3 5 8 10 13 15 19 22 25 27 29 32 33 34 35 35 36 36 37 37
17 17 27 28 26 20 17 18 17 15 13 12 12 11 11 10 11 10 9 7 5 4 4 4 4 6 8 10 13 16 20 23 25 27 29 31 32 33 34 34 35 36 36 37
22 28 26 26 24 21 21 18 14 13 13 13 13 12 12 12 12 12 11 9 8 7 7 6 7 8 10 12 14 17 20 23 25 27 29 30 31 32 33 34 34 35 35 35
18 28 27 26 22 20 19 17 15 14 13 13 12 11 12 13 13 12 11 10 10 9 9 8 9 11 12 14 15 18 20 23 25 27 29 30 30 31 32 33 33 34 35 35
29 22 22 21 20 19 17 15 15 14 14 13 13 13 13 14 14 13 12 12 12 12 11 12 12 13 15 16 18 20 21 23 25 27 28 30 30 31 32 33 33 33 34 35
25 20 19 20 20 19 16 15 14 14 14 14 14 14 14 15 15 15 14 14 14 14 15 15 16 17 18 19 20 22 23 24 25 27 28 29 30 30 32 32 33 33 34 35
17 17 19 19 18 17 16 15 15 15 15 14 14 15 15 15 16 16 16 16 16 17 18 18 19 20 21 22 23 24 25 25 26 27 28 29 30 30 32 33 33 33 34 35
18 19 19 18 18 17 15 15 15 16 16 16 16 16 16 17 18 18 18 18 19 20 21 21 21 22 23 24 25 25 26 26 26 27 27 28 30 30 32 33 33 34 35 35
19 19 18 17 17 15 14 15 16 17 18 18 19 19 19 19 20 19 19 20 21 22 22 23 23 24 24 24 25 26 26 26 27 27 28 29 30 31 33 34 34 35 36 37